Regional Weather Roundup
Issued by NWS Portland, ME

Current Version | Previous Version | Text Only | Print | Product List | Glossary Off
Versions: 1 2 3 4 5 6 7 8 9 10 11 12 13 14 15 16 17 18 19 20 21 22 23 24 25 26 27 28 29 30 31 32 33 34 35 36 37 38 39 40 41 42 43 44 45 46 47 48 49 50
934 ASUS41 KGYX 151610 RWRGYX WEATHER ROUNDUP FOR MAINE AND NEW HAMPSHIRE NATIONAL WEATHER SERVICE GRAY ME 1100 AM EST SAT DEC 15 2018 MEZ002-005-006-010-012-015-018-020-021-024-026-027-029-151700- MAINE CITY SKY/WX TMP DP RH WIND PRES REMARKS PORTLAND CLOUDY 48 39 71 W7 30.15S BAR HARBOR FAIR 45 34 65 NW12G18 30.13S WISCASSET FAIR 48 35 60 VRB6 30.16S ROCKLAND FAIR 49 34 56 NW12G22 30.14R FRYEBURG FAIR 45 30 55 NW8 30.15R LEWISTONAUBURN FAIR 42 34 73 NW5 30.16R AUGUSTA FAIR 43 30 60 NW7 30.17R WATERVILLE FAIR 42 28 57 MISG 30.13S BANGOR FAIR 41 33 73 W8 30.13F GREENVILLE N/A 37 25 61 NW9 30.05F MILLINOCKET CLOUDY 40 27 59 NW13G28 30.10S HOULTON CLOUDY 38 31 76 W14 30.03F PRESQUE ISLE CLOUDY 36 30 79 W10 30.03S FRENCHVILLE CLOUDY 36 29 75 W9 29.98F CARIBOU CLOUDY 37 30 75 W5 30.01S $$ NHZ002-005-008-009-011-012-014-151700- NEW HAMPSHIRE CITY SKY/WX TMP DP RH WIND PRES REMARKS PORTSMOUTH PTSUNNY 51 39 64 SW6 30.15F ROCHESTER FAIR 50 38 63 NW8 30.15S NASHUA FAIR 52 41 66 VRB5 30.17F MANCHESTER CLOUDY 51 40 65 VRB5 30.15F CONCORD FAIR 50 37 61 NW7 30.16F LACONIA PTSUNNY 45 36 70 NW7 30.16S PLYMOUTH FAIR 41 34 76 NW6 30.16F BERLIN CLOUDY 38 29 70 NW12 30.17R WHITEFIELD CLOUDY 37 30 75 NW8 30.19S JAFFREY FAIR 47 39 74 S8 30.16F KEENE FAIR 48 39 71 S5 30.17F LEBANON FAIR 40 33 76 CALM 30.17F MT WASHINGTON BLWGSNOW 18 18 100 W61 N/A VSB 0 WCI -8 $$ VTZ005-007-008-151700- VERMONT CITY SKY/WX TMP DP RH WIND PRES REMARKS ST JOHNSBURY N/A 38 31 76 MISG 30.20R MONTPELIER PTSUNNY 36 31 82 N5 30.22S BURLINGTON PTSUNNY 41 31 67 NW6 30.23F $$ MAZ007-012-024-CTZ003-RIZ002-NYZ038-NYZ072-151700- SOUTHERN NEW ENGLAND AND NY CITY SKY/WX TMP DP RH WIND PRES REMARKS WORCESTER FAIR 47 42 83 NW7 30.16F NANTUCKET N/A 49 48 97 N7 30.18F FOG PROVIDENCE CLOUDY 49 48 97 SW3 30.18F HARTFORD PTSUNNY 46 46 100 CALM 30.18F FOG ALBANY CLOUDY 47 38 71 CALM 30.20F NEW YORK CITY LGT RAIN 46 44 93 NE7 30.15F FOG $$ ANZ081-ANZ082-ANZ150-NHZ014-MEZ023>029-151700- COASTAL MARINE OBSERVATIONS STATION/POSITION TIME TEMP WIND PRES WAVE AIR SEA DIR/SP/G HT/PER (UTC) (F) (DEG/KT/KT) (MB) (FT/S) MOUNT DESERT ROC 1600 44 270/ 14/ 15 1019.5F MATINICUS ROCK 1500 44 270/ 14/ 14 1020.0R ISLE OF SHOALS 1500 46 240/ 10/ 11 1021.5R JEFFREYS LEDGE 1538 46 N/A 3/12 $$ .............KEY.............. WCI - WIND CHILL TC - TEMPERATURE IN CELSIUS VSB - VISIBILITY IN MILES HX - HEAT INDEX FAIR- INDICATES FEW OR NO CLOUDS BELOW 12,000 FT, WITH NO SIGNIFICANT WEATHER AND/OR OBSTRUCTIONS TO VISIBILITY.

USA.gov is the U.S. government's official web portal to all federal, state and local government web resources and services.